[[{"header":{"parameterUnit":"m.s-1","parameterCategory":1,"la1":30.2991,"la2":30.254,"lo1":-89.0895,"lo2":-89.0444,"dy":0.0017,"dx":0.0017,"nx":28,"ny":28,"refTime":"2023-09-12T21:00:00:Z","depth":0,"parameterNumber":2,"parameterNumberName":"U-component_of_WINDS"},"data":[0,0,0,0,0,0,0,0,0,0,0,0,0,0,0,0,0,0,0,0,0,0,0,0,0,0,0,0,0,0,0,0,0,0,0,0,0,0,0,0,0,0,0,0,0,0,0,0,0,0,0,0,0,0,0,0,0,0,-0.794,-0.794,0,-0.7953,-0.7953,-0.7953,-0.789,-0.7888,-0.7886,-0.7884,-0.79,-0.7902,-0.7904,0,0,0,0,0,0,0,0,0,0,0,0,0,-0.7864,-0.7865,-0.794,-0.794,-0.7941,-0.7953,-0.7953,-0.7953,-0.789,-0.7888,-0.7886,-0.7884,-0.7899,-0.7902,-0.7904,0,0,0,0,0,0,0,0,0,0,0,0,0,-0.7889,-0.7866,-0.794,-0.7911,-0.7908,-0.7953,-0.7953,-0.7953,-0.7891,-0.7888,-0.7885,-0.7883,-0.7899,-0.7902,-0.7905,-0.7979,0,0,-0.7915,-0.7916,0,0,0,0,0,0,0,0,-0.7887,-0.7892,-0.7915,-0.7913,-0.791,-0.7917,-0.7931,-0.7962,-0.7891,-0.7897,-0.7884,-0.7881,-0.7908,-0.791,-0.7919,-0.798,-0.7981,-0.7915,-0.7917,-0.7918,-0.7919,0,0,0,0,0,0,0,-0.7886,-0.7891,-0.7945,-0.7915,-0.7912,-0.7897,-0.7898,-0.7937,-0.7918,-0.7897,-0.7892,-0.7894,-0.7906,-0.7916,-0.7919,-0.7981,-0.7915,-0.7918,-0.792,-0.7921,-0.8103,-0.8106,0,0,0,0,0,0,-0.7888,-0.789,-0.7945,-0.7946,-0.7892,-0.7901,-0.7901,-0.7917,-0.7917,-0.7915,-0.7897,-0.7891,-0.7912,-0.7915,-0.7919,-0.8006,-0.7918,-0.7921,-0.7923,-0.81,-0.8104,-0.8107,0,0,0,0,0,0,-0.7886,-0.7893,-0.7944,-0.7916,-0.7922,-0.7905,-0.7924,-0.7919,-0.7929,-0.7917,-0.7914,-0.791,-0.791,-0.7914,-0.7964,-0.8006,-0.7922,-0.7925,-0.8097,-0.8101,-0.8105,-0.8181,0,0,0,0,0,0,-0.7884,-0.7893,-0.7921,-0.7917,-0.7923,-0.799,-0.7926,-0.7921,-0.7934,-0.7927,-0.7929,-0.7927,-0.7908,-0.796,-0.7968,-0.8009,-0.7928,-0.8093,-0.8099,-0.8104,-0.8175,-0.8187,-0.8198,0,0,0,0,0,-0.7882,-0.7943,-0.7923,-0.793,-0.7958,-0.7992,-0.7996,-0.7972,-0.7938,-0.7966,-0.7958,-0.7926,-0.7999,-0.7966,-0.7974,-0.8016,-0.809,-0.8097,-0.8104,-0.817,-0.8185,-0.8198,0,0,0,0,0,0,-0.7953,-0.7942,-0.792,-0.7981,-0.7988,-0.7981,-0.8016,-0.7989,-0.8007,-0.8,-0.7971,-0.7972,-0.8027,-0.8026,-0.7989,-0.8088,-0.8039,-0.8048,-0.8086,-0.8101,-0.8112,-0.8112,-0.7931,0,0,0,0,0,-0.7976,-0.8004,-0.7992,-0.8048,-0.8052,-0.8034,-0.8048,-0.8029,-0.8035,-0.8038,-0.8034,-0.8042,-0.8066,-0.8083,-0.8105,-0.8174,-0.8173,-0.8207,-0.8218,-0.8228,-0.8236,-0.8272,-0.8287,-0.8129,-0.8129,-0.8128,0,0,-0.8024,-0.8021,-0.8041,-0.8062,-0.8065,-0.8095,-0.8037,-0.8071,-0.8093,-0.8043,-0.809,-0.8087,-0.8094,-0.8153,-0.8179,-0.8155,-0.8279,-0.8237,-0.8244,-0.8247,-0.828,-0.8295,-0.8308,-0.8133,-0.8132,-0.8132,0,0,-0.8126,-0.8127,-0.8173,-0.8176,-0.8181,-0.8167,-0.8178,-0.8175,-0.8171,-0.8217,-0.818,-0.8206,-0.8249,-0.8255,-0.8264,-0.8366,-0.8338,-0.8374,-0.8436,-0.8471,-0.8484,-0.8494,-0.8531,-0.8545,-0.8382,-0.8382,-0.8382,0,-0.8186,-0.8229,-0.82,-0.8236,-0.8247,-0.8201,-0.8247,-0.8252,-0.8265,-0.8273,-0.8245,-0.8297,-0.8298,-0.8358,-0.8383,-0.8391,-0.8403,-0.8375,-0.8484,-0.8495,-0.8504,-0.8539,-0.8553,-0.8387,-0.8386,-0.8386,-0.8385,0,-0.8301,-0.8331,-0.8368,-0.8379,-0.8393,-0.8435,-0.8413,-0.8431,-0.841,-0.84,-0.8447,-0.8446,-0.8467,-0.8479,-0.846,-0.8536,-0.8521,-0.8489,-0.8439,-0.8524,-0.8556,-0.8569,-0.8393,-0.8391,-0.839,-0.8389,0,0,-0.8452,-0.8444,-0.8458,-0.8462,-0.8463,-0.8486,-0.8525,-0.8543,-0.856,-0.8569,-0.8601,-0.8637,-0.8607,-0.8617,-0.8598,-0.8628,-0.8709,-0.8592,-0.8592,-0.8614,-0.8793,-0.8818,-0.8833,-0.8689,-0.8692,-0.8693,-0.8792,0,-0.8552,-0.8617,-0.8592,-0.8659,-0.8687,-0.8642,-0.8676,-0.868,-0.8671,-0.8694,-0.8684,-0.871,-0.8668,-0.8674,-0.8702,-0.8693,-0.8745,-0.8686,-0.872,-0.8721,-0.872,-0.885,-0.8877,-0.897,-0.8804,-0.8807,-0.8808,0,-0.8679,-0.8691,-0.8762,-0.8756,-0.8766,-0.8797,-0.8811,-0.8833,-0.8836,-0.8828,-0.8838,-0.8811,-0.8849,-0.8798,-0.885,-0.881,-0.8822,-0.882,-0.8823,-0.8826,-0.8771,-0.8858,-0.8999,-0.9014,-0.8828,-0.8826,-0.8825,0,-0.8782,-0.8817,-0.8862,-0.8867,-0.8862,-0.8884,-0.8883,-0.8883,-0.8896,-0.8909,-0.8916,-0.8934,-0.8944,-0.8958,-0.8937,-0.8902,-0.8991,-0.8939,-0.8986,-0.8987,-0.9008,-0.9007,-0.9155,-0.9014,-0.9014,-0.9014,-0.9014,0,-0.8898,-0.8943,-0.8908,-0.8937,-0.8986,-0.8955,-0.9004,-0.8998,-0.8999,-0.9025,-0.8988,-0.9014,-0.8984,-0.9007,-0.8991,-0.9036,-0.9041,-0.9035,-0.903,-0.9039,-0.904,-0.9047,-0.9041,-0.9018,-0.9017,-0.9016,-0.9015,0,-0.9022,-0.9001,-0.9048,-0.9038,-0.9036,-0.9073,-0.9064,-0.909,-0.9077,-0.9112,-0.9118,-0.9099,-0.9124,-0.9103,-0.9129,-0.9117,-0.9177,-0.9163,-0.9176,-0.9173,-0.9221,-0.9217,-0.9379,-0.9399,-0.9245,-0.9247,-0.9248,0,-0.9098,-0.9131,-0.9124,-0.9138,-0.9139,-0.9163,-0.9175,-0.9146,-0.916,-0.9165,-0.919,-0.9212,-0.9228,-0.927,-0.9259,-0.9277,-0.9264,-0.9319,-0.9266,-0.9274,-0.9265,-0.9264,-0.9267,-0.933,-0.9332,-0.9334,-0.9335,0,-0.9235,-0.9222,-0.924,-0.9255,-0.9269,-0.9279,-0.9287,-0.9301,-0.9271,-0.9288,-0.9313,-0.9325,-0.9349,-0.9371,-0.9386,-0.9385,-0.9356,-0.9351,-0.9363,-0.9373,-0.9379,-0.9377,-0.9206,-0.9348,-0.9347,-0.9346,-0.9345,-0.9345,-0.9338,-0.9365,-0.9363,-0.9384,-0.9386,-0.9393,-0.9417,-0.9406,-0.9425,-0.9442,-0.9423,-0.9453,-0.9454,-0.947,-0.9473,-0.9496,-0.9473,-0.949,-0.9495,-0.95,-0.9507,-0.9374,-0.9498,-0.9498,-0.9498,-0.9497,-0.9497,0,-0.9474,-0.9469,-0.9489,-0.9499,-0.9516,-0.9484,-0.949,-0.9506,-0.9532,-0.9535,-0.9551,-0.9578,-0.9599,-0.9588,-0.9606,-0.9626,-0.9613,-0.9632,-0.9631,-0.9631,-0.9526,-0.9514,-0.9642,-0.9642,-0.9642,-0.9642,-0.9642,-0.9642,-0.9546,-0.959,-0.9576,-0.962,-0.9616,-0.9644,-0.965,-0.9656,-0.9658,-0.969,-0.9706,-0.9698,-0.9696,-0.9713,-0.973,-0.9726,-0.9735,-0.9759,-0.9751,-0.9653,-0.9639,-0.9625,-0.9614,-0.9761,-0.9761,-0.9854,-0.9855,-0.9855]},{"header":{"parameterUnit":"m.s-1","parameterCategory":1,"la1":30.2991,"la2":30.254,"lo1":-89.0895,"lo2":-89.0444,"dy":0.0017,"dx":0.0017,"nx":28,"ny":28,"refTime":"2023-09-12T21:00:00:Z","depth":0,"parameterNumber":3,"parameterNumberName":"V-component_of_WINDS"},"data":[0,0,0,0,0,0,0,0,0,0,0,0,0,0,0,0,0,0,0,0,0,0,0,0,0,0,0,0,0,0,0,0,0,0,0,0,0,0,0,0,0,0,0,0,0,0,0,0,0,0,0,0,0,0,0,0,0,0,-2.8163,-2.8164,0,-2.8237,-2.8238,-2.8239,-2.8242,-2.8241,-2.824,-2.8239,-2.8311,-2.8314,-2.8317,0,0,0,0,0,0,0,0,0,0,0,0,0,-2.8019,-2.8021,-2.8163,-2.8164,-2.8165,-2.8237,-2.8238,-2.8239,-2.8242,-2.8241,-2.824,-2.8239,-2.831,-2.8314,-2.8317,0,0,0,0,0,0,0,0,0,0,0,0,0,-2.8086,-2.8022,-2.8163,-2.8175,-2.8177,-2.8237,-2.8238,-2.824,-2.8242,-2.8241,-2.8239,-2.8238,-2.8309,-2.8313,-2.8317,-2.8369,0,0,-2.833,-2.8332,0,0,0,0,0,0,0,0,-2.8082,-2.8091,-2.8172,-2.8174,-2.8176,-2.8229,-2.8214,-2.8283,-2.8242,-2.8217,-2.8239,-2.8237,-2.8285,-2.8291,-2.8307,-2.8373,-2.8376,-2.833,-2.8333,-2.8335,-2.8336,0,0,0,0,0,0,0,-2.8077,-2.8088,-2.8192,-2.8173,-2.8176,-2.8175,-2.8183,-2.8227,-2.8257,-2.8219,-2.822,-2.8228,-2.8285,-2.8303,-2.8309,-2.8377,-2.833,-2.8334,-2.8336,-2.8338,-2.8486,-2.8488,0,0,0,0,0,0,-2.8071,-2.8084,-2.819,-2.8195,-2.8125,-2.8179,-2.8188,-2.8213,-2.8257,-2.8262,-2.823,-2.8228,-2.8297,-2.8304,-2.8312,-2.8374,-2.8334,-2.8338,-2.8341,-2.8485,-2.8487,-2.8488,0,0,0,0,0,0,-2.8068,-2.808,-2.8187,-2.814,-2.8153,-2.8183,-2.8211,-2.8215,-2.8234,-2.8265,-2.827,-2.8243,-2.8296,-2.8306,-2.8355,-2.8377,-2.834,-2.8344,-2.8483,-2.8485,-2.8487,-2.85,0,0,0,0,0,0,-2.8064,-2.8079,-2.8101,-2.814,-2.8156,-2.823,-2.8213,-2.8218,-2.8241,-2.824,-2.8278,-2.8283,-2.8296,-2.8349,-2.8359,-2.8382,-2.8347,-2.8481,-2.8484,-2.8487,-2.8498,-2.8502,-2.8506,0,0,0,0,0,-2.8059,-2.8101,-2.8102,-2.8114,-2.8183,-2.8232,-2.824,-2.8255,-2.8243,-2.8264,-2.8283,-2.8282,-2.8373,-2.8354,-2.8365,-2.8389,-2.848,-2.8483,-2.8487,-2.8496,-2.8501,-2.8506,0,0,0,0,0,0,-2.8062,-2.8106,-2.8108,-2.8164,-2.8194,-2.8232,-2.8259,-2.8261,-2.8294,-2.8292,-2.8307,-2.8316,-2.8364,-2.8382,-2.836,-2.8441,-2.8425,-2.843,-2.8428,-2.8433,-2.8438,-2.8432,-2.8351,0,0,0,0,0,-2.807,-2.8107,-2.8143,-2.8189,-2.8204,-2.8229,-2.825,-2.8259,-2.8291,-2.8303,-2.8326,-2.8356,-2.839,-2.8413,-2.8447,-2.8501,-2.8508,-2.8523,-2.8527,-2.853,-2.8535,-2.8562,-2.8569,-2.8499,-2.8499,-2.8499,0,0,-2.8085,-2.8114,-2.8136,-2.819,-2.8215,-2.8251,-2.8239,-2.8279,-2.8305,-2.8308,-2.8356,-2.8374,-2.8408,-2.8459,-2.8482,-2.8475,-2.8556,-2.8535,-2.8537,-2.854,-2.8566,-2.8573,-2.8579,-2.8501,-2.8501,-2.8501,0,0,-2.8132,-2.8158,-2.8199,-2.8223,-2.8261,-2.8277,-2.8286,-2.8324,-2.8336,-2.8384,-2.8387,-2.8418,-2.8479,-2.8502,-2.8521,-2.8576,-2.8575,-2.8586,-2.8608,-2.8635,-2.864,-2.8645,-2.8663,-2.8669,-2.8591,-2.8591,-2.8591,0,-2.8146,-2.8202,-2.8219,-2.8258,-2.8281,-2.8287,-2.8327,-2.8349,-2.8395,-2.841,-2.8402,-2.8477,-2.85,-2.8555,-2.8568,-2.8585,-2.8595,-2.8582,-2.8639,-2.8644,-2.8648,-2.8665,-2.8672,-2.8592,-2.8592,-2.8592,-2.8592,0,-2.8217,-2.8256,-2.8284,-2.8329,-2.8355,-2.8395,-2.8415,-2.844,-2.8446,-2.8462,-2.851,-2.8538,-2.8577,-2.8591,-2.8597,-2.8647,-2.8641,-2.8636,-2.8619,-2.8656,-2.8672,-2.8679,-2.8593,-2.8593,-2.8593,-2.8592,0,0,-2.8268,-2.8321,-2.8331,-2.8351,-2.8392,-2.8421,-2.846,-2.8499,-2.8519,-2.855,-2.8582,-2.8633,-2.8627,-2.8649,-2.8658,-2.8682,-2.8721,-2.8673,-2.8674,-2.868,-2.8775,-2.8778,-2.8786,-2.8721,-2.8723,-2.8724,-2.8772,0,-2.8317,-2.8388,-2.8404,-2.8464,-2.8499,-2.8504,-2.8538,-2.8565,-2.8581,-2.8612,-2.8629,-2.8664,-2.8656,-2.8669,-2.8693,-2.8711,-2.874,-2.8708,-2.8749,-2.875,-2.8739,-2.8794,-2.8798,-2.8842,-2.8778,-2.878,-2.878,0,-2.8385,-2.8419,-2.8482,-2.8518,-2.8533,-2.8563,-2.8599,-2.8629,-2.866,-2.867,-2.8695,-2.8701,-2.874,-2.8722,-2.8775,-2.8752,-2.877,-2.8781,-2.8783,-2.8787,-2.8767,-2.8797,-2.8857,-2.8863,-2.8791,-2.879,-2.8789,0,-2.8413,-2.8475,-2.852,-2.8537,-2.858,-2.8601,-2.8619,-2.8649,-2.8671,-2.8702,-2.8716,-2.8751,-2.877,-2.8796,-2.8811,-2.8797,-2.8861,-2.8846,-2.8869,-2.8869,-2.8881,-2.888,-2.8943,-2.8895,-2.8895,-2.8895,-2.8895,0,-2.8467,-2.8505,-2.8533,-2.8561,-2.8604,-2.8621,-2.8662,-2.868,-2.8706,-2.8736,-2.8743,-2.8771,-2.8789,-2.8819,-2.8831,-2.8871,-2.888,-2.8888,-2.889,-2.8886,-2.8885,-2.8897,-2.8894,-2.8897,-2.8896,-2.8896,-2.8896,0,-2.8505,-2.8526,-2.8576,-2.8612,-2.8622,-2.8652,-2.8682,-2.8708,-2.8724,-2.8762,-2.8772,-2.8797,-2.8832,-2.885,-2.8894,-2.8902,-2.8947,-2.8948,-2.8937,-2.8937,-2.8959,-2.8956,-2.903,-2.904,-2.8987,-2.8988,-2.8988,0,-2.8537,-2.8567,-2.8606,-2.8628,-2.8647,-2.8681,-2.8703,-2.8721,-2.8744,-2.878,-2.8802,-2.8838,-2.8868,-2.8924,-2.8945,-2.8978,-2.8979,-2.9003,-2.8984,-2.8979,-2.8977,-2.8975,-2.8977,-2.9005,-2.9006,-2.9006,-2.9007,0,-2.8591,-2.8599,-2.8632,-2.8669,-2.8696,-2.8725,-2.8753,-2.877,-2.8792,-2.8817,-2.8854,-2.8877,-2.8922,-2.8957,-2.8991,-2.9008,-2.901,-2.9013,-2.9019,-2.9015,-2.9007,-2.901,-2.8944,-2.901,-2.901,-2.901,-2.901,-2.9009,-2.8626,-2.8652,-2.8684,-2.872,-2.8743,-2.8769,-2.8796,-2.8815,-2.8847,-2.8885,-2.8893,-2.8932,-2.896,-2.9007,-2.9025,-2.9055,-2.9049,-2.906,-2.9062,-2.9064,-2.9064,-2.9003,-2.9061,-2.9061,-2.9061,-2.9061,-2.9061,0,-2.8678,-2.8699,-2.8732,-2.8772,-2.88,-2.8801,-2.8832,-2.8855,-2.8889,-2.8917,-2.8946,-2.8987,-2.9021,-2.9044,-2.9078,-2.9097,-2.9099,-2.9105,-2.9103,-2.9107,-2.9068,-2.9058,-2.9103,-2.9103,-2.9103,-2.9103,-2.9103,-2.9103,-2.8709,-2.8753,-2.8765,-2.8819,-2.8839,-2.8878,-2.8895,-2.8919,-2.8941,-2.8987,-2.9016,-2.9031,-2.9056,-2.9092,-2.9122,-2.9128,-2.9139,-2.9146,-2.9151,-2.9114,-2.911,-2.9105,-2.9096,-2.9148,-2.9148,-2.9187,-2.9188,-2.9188]}]]